contact:dominique.lefevre@mio.osupytheas.fr, maurice.libes@osupytheas.fr, didier.mallarino@osupytheas.fr
Project:EMSO http://www.emso-fr.org/EMSO-France
Depth: 2436.0 m
Title:EMSO Ligure Ouest : Data MII capteur OXYGEN
DateTime,Latitude,Longitude,Optode-Type,Optode_Serial,Oxygen,Saturation_Oxygen,Temperature
DateTime,Latitude,Longitude,Optode-Type,Optode_Serial,µmol.l-1,%,degC
2017-11-22T00:01:03,42.805,6.029,4330,1995,197.665,60.446,13.286
2017-11-22T00:04:03,42.805,6.029,4330,1995,197.603,60.427,13.286
2017-11-22T00:07:03,42.805,6.029,4330,1995,197.596,60.425,13.286
2017-11-22T00:10:03,42.805,6.029,4330,1995,197.645,60.440,13.286
2017-11-22T00:13:03,42.805,6.029,4330,1995,197.676,60.450,13.286
2017-11-22T00:16:03,42.805,6.029,4330,1995,197.670,60.448,13.286
2017-11-22T00:19:03,42.805,6.029,4330,1995,197.580,60.420,13.286
2017-11-22T00:22:03,42.805,6.029,4330,1995,197.607,60.428,13.286
2017-11-22T00:25:03,42.805,6.029,4330,1995,197.511,60.399,13.286
2017-11-22T00:28:03,42.805,6.029,4330,1995,197.519,60.402,13.286
2017-11-22T00:31:03,42.805,6.029,4330,1995,197.558,60.414,13.286
2017-11-22T00:34:03,42.805,6.029,4330,1995,197.538,60.407,13.286
2017-11-22T00:37:03,42.805,6.029,4330,1995,197.532,60.405,13.286
2017-11-22T00:40:03,42.805,6.029,4330,1995,197.419,60.371,13.286
2017-11-22T00:43:03,42.805,6.029,4330,1995,197.398,60.365,13.286
2017-11-22T00:46:03,42.805,6.029,4330,1995,197.388,60.361,13.286
2017-11-22T00:49:03,42.805,6.029,4330,1995,197.300,60.335,13.286
2017-11-22T00:52:03,42.805,6.029,4330,1995,197.346,60.349,13.286
2017-11-22T00:55:03,42.805,6.029,4330,1995,197.365,60.354,13.286
2017-11-22T00:58:03,42.805,6.029,4330,1995,197.345,60.348,13.286
2017-11-22T01:01:03,42.805,6.029,4330,1995,197.363,60.353,13.286
2017-11-22T01:04:03,42.805,6.029,4330,1995,197.351,60.350,13.286
2017-11-22T01:07:03,42.805,6.029,4330,1995,197.316,60.340,13.286
2017-11-22T01:10:03,42.805,6.029,4330,1995,197.334,60.345,13.286
2017-11-22T01:13:03,42.805,6.029,4330,1995,197.258,60.322,13.286
2017-11-22T01:16:03,42.805,6.029,4330,1995,197.249,60.319,13.286
2017-11-22T01:19:03,42.805,6.029,4330,1995,197.174,60.296,13.286
2017-11-22T01:22:03,42.805,6.029,4330,1995,197.177,60.298,13.287
2017-11-22T01:25:03,42.805,6.029,4330,1995,197.192,60.301,13.286
2017-11-22T01:28:03,42.805,6.029,4330,1995,197.111,60.277,13.286
2017-11-22T01:31:03,42.805,6.029,4330,1995,197.081,60.268,13.286
2017-11-22T01:34:03,42.805,6.029,4330,1995,197.071,60.265,13.287
2017-11-22T01:37:03,42.805,6.029,4330,1995,197.084,60.269,13.287
2017-11-22T01:40:03,42.805,6.029,4330,1995,197.113,60.278,13.286
2017-11-22T01:43:03,42.805,6.029,4330,1995,197.064,60.263,13.286
2017-11-22T01:46:03,42.805,6.029,4330,1995,197.066,60.263,13.286
2017-11-22T01:49:03,42.805,6.029,4330,1995,197.039,60.255,13.286
2017-11-22T01:52:03,42.805,6.029,4330,1995,197.056,60.260,13.286
2017-11-22T01:55:03,42.805,6.029,4330,1995,196.975,60.236,13.286
2017-11-22T01:58:03,42.805,6.029,4330,1995,197.054,60.259,13.286
2017-11-22T02:01:03,42.805,6.029,4330,1995,197.045,60.257,13.286
2017-11-22T02:04:03,42.805,6.029,4330,1995,196.953,60.229,13.286
2017-11-22T02:07:03,42.805,6.029,4330,1995,196.940,60.224,13.286
2017-11-22T02:10:03,42.805,6.029,4330,1995,196.889,60.209,13.286
2017-11-22T02:13:03,42.805,6.029,4330,1995,196.888,60.209,13.286
2017-11-22T02:16:03,42.805,6.029,4330,1995,196.832,60.192,13.286
2017-11-22T02:19:03,42.805,6.029,4330,1995,196.872,60.204,13.286
2017-11-22T02:22:03,42.805,6.029,4330,1995,196.896,60.211,13.286
2017-11-22T02:25:03,42.805,6.029,4330,1995,196.879,60.206,13.286
2017-11-22T02:28:03,42.805,6.029,4330,1995,196.887,60.208,13.286
2017-11-22T02:31:03,42.805,6.029,4330,1995,196.844,60.195,13.286
2017-11-22T02:34:03,42.805,6.029,4330,1995,196.848,60.196,13.286
2017-11-22T02:37:03,42.805,6.029,4330,1995,196.791,60.179,13.286
2017-11-22T02:40:03,42.805,6.029,4330,1995,196.837,60.193,13.286
2017-11-22T02:43:03,42.805,6.029,4330,1995,196.902,60.213,13.286
2017-11-22T02:46:03,42.805,6.029,4330,1995,196.820,60.188,13.286
2017-11-22T02:49:03,42.805,6.029,4330,1995,196.839,60.194,13.286
2017-11-22T02:52:03,42.805,6.029,4330,1995,196.770,60.173,13.286
2017-11-22T02:55:03,42.805,6.029,4330,1995,196.648,60.135,13.286
2017-11-22T02:58:03,42.805,6.029,4330,1995,196.668,60.141,13.286
2017-11-22T03:01:03,42.805,6.029,4330,1995,196.614,60.125,13.286
2017-11-22T03:04:03,42.805,6.029,4330,1995,196.638,60.132,13.286
2017-11-22T03:07:03,42.805,6.029,4330,1995,196.535,60.101,13.286
2017-11-22T03:10:03,42.805,6.029,4330,1995,196.437,60.071,13.286
2017-11-22T03:13:03,42.805,6.029,4330,1995,196.410,60.063,13.286
2017-11-22T03:16:03,42.805,6.029,4330,1995,196.571,60.112,13.286
2017-11-22T03:19:03,42.805,6.029,4330,1995,196.624,60.128,13.286
2017-11-22T03:22:03,42.805,6.029,4330,1995,196.598,60.120,13.286
2017-11-22T03:25:03,42.805,6.029,4330,1995,196.486,60.085,13.286
2017-11-22T03:28:03,42.805,6.029,4330,1995,196.478,60.083,13.286
2017-11-22T03:31:03,42.805,6.029,4330,1995,196.577,60.114,13.286
2017-11-22T03:34:03,42.805,6.029,4330,1995,196.687,60.148,13.286
2017-11-22T03:37:03,42.805,6.029,4330,1995,196.579,60.114,13.286
2017-11-22T03:40:03,42.805,6.029,4330,1995,196.641,60.133,13.286
2017-11-22T03:43:03,42.805,6.029,4330,1995,196.629,60.130,13.287
2017-11-22T03:46:03,42.805,6.029,4330,1995,196.570,60.111,13.286
2017-11-22T03:49:03,42.805,6.029,4330,1995,196.686,60.147,13.286
2017-11-22T03:52:03,42.805,6.029,4330,1995,196.618,60.126,13.286
2017-11-22T03:55:03,42.805,6.029,4330,1995,196.461,60.079,13.287
2017-11-22T03:58:03,42.805,6.029,4330,1995,196.559,60.109,13.287
2017-11-22T04:01:03,42.805,6.029,4330,1995,196.454,60.076,13.286
2017-11-22T04:04:03,42.805,6.029,4330,1995,196.447,60.074,13.286
2017-11-22T04:07:03,42.805,6.029,4330,1995,196.389,60.056,13.286
2017-11-22T04:10:03,42.805,6.029,4330,1995,196.399,60.059,13.286
2017-11-22T04:13:03,42.805,6.029,4330,1995,196.400,60.060,13.286
2017-11-22T04:16:03,42.805,6.029,4330,1995,196.626,60.130,13.287
2017-11-22T04:19:03,42.805,6.029,4330,1995,196.548,60.105,13.287
2017-11-22T04:22:03,42.805,6.029,4330,1995,196.511,60.094,13.286
2017-11-22T04:25:03,42.805,6.029,4330,1995,196.208,60.001,13.286
2017-11-22T04:28:03,42.805,6.029,4330,1995,196.336,60.040,13.287
2017-11-22T04:31:03,42.805,6.029,4330,1995,196.301,60.030,13.287
2017-11-22T04:34:03,42.805,6.029,4330,1995,196.360,60.048,13.287
2017-11-22T04:37:03,42.805,6.029,4330,1995,196.316,60.034,13.287
2017-11-22T04:40:03,42.805,6.029,4330,1995,196.253,60.015,13.286
2017-11-22T04:43:03,42.805,6.029,4330,1995,196.284,60.025,13.287
2017-11-22T04:46:03,42.805,6.029,4330,1995,196.169,59.990,13.287
2017-11-22T04:49:03,42.805,6.029,4330,1995,196.196,59.997,13.286
2017-11-22T04:52:03,42.805,6.029,4330,1995,196.166,59.988,13.286
2017-11-22T04:55:03,42.805,6.029,4330,1995,196.265,60.019,13.287
2017-11-22T04:58:03,42.805,6.029,4330,1995,196.278,60.023,13.287
2017-11-22T05:01:03,42.805,6.029,4330,1995,196.300,60.030,13.287
2017-11-22T05:04:03,42.805,6.029,4330,1995,196.280,60.025,13.288
2017-11-22T05:07:03,42.805,6.029,4330,1995,196.200,59.999,13.287
2017-11-22T05:10:03,42.805,6.029,4330,1995,196.108,59.971,13.287
2017-11-22T05:13:03,42.805,6.029,4330,1995,196.077,59.962,13.287
2017-11-22T05:16:03,42.805,6.029,4330,1995,196.059,59.956,13.287
2017-11-22T05:19:03,42.805,6.029,4330,1995,196.011,59.942,13.287
2017-11-22T05:22:03,42.805,6.029,4330,1995,196.081,59.962,13.287
2017-11-22T05:25:03,42.805,6.029,4330,1995,196.035,59.950,13.288
2017-11-22T05:28:03,42.805,6.029,4330,1995,195.801,59.878,13.288
2017-11-22T05:31:03,42.805,6.029,4330,1995,195.900,59.908,13.287
2017-11-22T05:34:03,42.805,6.029,4330,1995,195.921,59.915,13.288
2017-11-22T05:37:03,42.805,6.029,4330,1995,195.846,59.892,13.288
2017-11-22T05:40:03,42.805,6.029,4330,1995,195.910,59.911,13.288
2017-11-22T05:43:03,42.805,6.029,4330,1995,195.920,59.913,13.287
2017-11-22T05:46:03,42.805,6.029,4330,1995,195.925,59.915,13.287
2017-11-22T05:49:03,42.805,6.029,4330,1995,195.934,59.917,13.287
2017-11-22T05:52:03,42.805,6.029,4330,1995,195.946,59.921,13.287
2017-11-22T05:55:03,42.805,6.029,4330,1995,196.024,59.946,13.288
2017-11-22T05:58:03,42.805,6.029,4330,1995,195.973,59.930,13.287
2017-11-22T06:01:03,42.805,6.029,4330,1995,195.968,59.930,13.288
2017-11-22T06:04:03,42.805,6.029,4330,1995,195.785,59.874,13.288
2017-11-22T06:07:03,42.805,6.029,4330,1995,195.714,59.852,13.288
2017-11-22T06:10:03,42.805,6.029,4330,1995,196.197,60.000,13.288
2017-11-22T06:13:03,42.805,6.029,4330,1995,196.222,60.007,13.287
2017-11-22T06:16:03,42.805,6.029,4330,1995,196.055,59.956,13.288
2017-11-22T06:19:03,42.805,6.029,4330,1995,195.913,59.912,13.288
2017-11-22T06:22:03,42.805,6.029,4330,1995,195.952,59.924,13.287
2017-11-22T06:25:03,42.805,6.029,4330,1995,196.177,59.993,13.287
2017-11-22T06:28:03,42.805,6.029,4330,1995,196.251,60.015,13.287
2017-11-22T06:31:03,42.805,6.029,4330,1995,196.218,60.006,13.288
2017-11-22T06:34:03,42.805,6.029,4330,1995,196.158,59.987,13.287
2017-11-22T06:37:03,42.805,6.029,4330,1995,196.119,59.976,13.288
2017-11-22T06:40:03,42.805,6.029,4330,1995,196.025,59.946,13.287
2017-11-22T06:43:03,42.805,6.029,4330,1995,195.974,59.932,13.288
2017-11-22T06:46:03,42.805,6.029,4330,1995,195.713,59.851,13.287
2017-11-22T06:49:03,42.805,6.029,4330,1995,195.891,59.905,13.287
2017-11-22T06:52:03,42.805,6.029,4330,1995,195.813,59.881,13.287
2017-11-22T06:55:03,42.805,6.029,4330,1995,195.845,59.891,13.288
2017-11-22T06:58:03,42.805,6.029,4330,1995,195.805,59.879,13.287
2017-11-22T07:01:03,42.805,6.029,4330,1995,195.749,59.862,13.287
2017-11-22T07:04:03,42.805,6.029,4330,1995,195.578,59.810,13.288
2017-11-22T07:07:03,42.805,6.029,4330,1995,195.558,59.803,13.287
2017-11-22T07:10:03,42.805,6.029,4330,1995,195.687,59.843,13.287
2017-11-22T07:13:03,42.805,6.029,4330,1995,195.780,59.873,13.288
2017-11-22T07:16:03,42.805,6.029,4330,1995,195.651,59.833,13.288
2017-11-22T07:19:03,42.805,6.029,4330,1995,195.411,59.760,13.288
2017-11-22T07:22:03,42.805,6.029,4330,1995,195.321,59.732,13.288
2017-11-22T07:25:03,42.805,6.029,4330,1995,195.199,59.695,13.288
2017-11-22T07:28:03,42.805,6.029,4330,1995,195.162,59.683,13.288
2017-11-22T07:31:03,42.805,6.029,4330,1995,195.203,59.698,13.289
2017-11-22T07:34:03,42.805,6.029,4330,1995,195.311,59.729,13.288
2017-11-22T07:37:03,42.805,6.029,4330,1995,195.268,59.717,13.289
2017-11-22T07:40:03,42.805,6.029,4330,1995,195.211,59.698,13.288
2017-11-22T07:43:03,42.805,6.029,4330,1995,195.301,59.725,13.287
2017-11-22T07:46:03,42.805,6.029,4330,1995,195.271,59.715,13.287
2017-11-22T07:49:03,42.805,6.029,4330,1995,195.499,59.786,13.288
2017-11-22T07:52:03,42.805,6.029,4330,1995,195.569,59.806,13.287
2017-11-22T07:55:03,42.805,6.029,4330,1995,195.716,59.851,13.287
2017-11-22T07:58:03,42.805,6.029,4330,1995,195.713,59.851,13.287
2017-11-22T08:01:03,42.805,6.029,4330,1995,195.699,59.847,13.287
2017-11-22T08:04:03,42.805,6.029,4330,1995,195.807,59.879,13.287
2017-11-22T08:07:03,42.805,6.029,4330,1995,195.820,59.884,13.287
2017-11-22T08:10:03,42.805,6.029,4330,1995,195.833,59.889,13.288
2017-11-22T08:13:03,42.805,6.029,4330,1995,195.967,59.928,13.287
2017-11-22T08:16:03,42.805,6.029,4330,1995,196.233,60.009,13.287
2017-11-22T08:19:03,42.805,6.029,4330,1995,196.153,59.988,13.289
2017-11-22T08:22:03,42.805,6.029,4330,1995,196.150,59.985,13.288
2017-11-22T08:25:03,42.805,6.029,4330,1995,196.127,59.978,13.287
2017-11-22T08:28:03,42.805,6.029,4330,1995,196.199,59.999,13.287
2017-11-22T08:31:03,42.805,6.029,4330,1995,196.273,60.022,13.287
2017-11-22T08:34:03,42.805,6.029,4330,1995,196.353,60.047,13.288
2017-11-22T08:37:03,42.805,6.029,4330,1995,196.344,60.044,13.288
2017-11-22T08:40:02,42.805,6.029,4330,1995,196.178,59.992,13.287
2017-11-22T08:43:02,42.805,6.029,4330,1995,196.040,59.951,13.288
2017-11-22T08:46:02,42.805,6.029,4330,1995,195.869,59.899,13.288
2017-11-22T08:49:02,42.805,6.029,4330,1995,195.548,59.801,13.288
2017-11-22T08:52:02,42.805,6.029,4330,1995,195.199,59.695,13.289
2017-11-22T08:55:02,42.805,6.029,4330,1995,195.171,59.686,13.288
2017-11-22T08:58:02,42.805,6.029,4330,1995,195.205,59.697,13.289
2017-11-22T09:01:02,42.805,6.029,4330,1995,195.110,59.669,13.290
2017-11-22T09:04:02,42.805,6.029,4330,1995,194.970,59.627,13.290
2017-11-22T09:07:02,42.805,6.029,4330,1995,194.738,59.555,13.289
2017-11-22T09:10:02,42.805,6.029,4330,1995,194.595,59.512,13.289
2017-11-22T09:13:02,42.805,6.029,4330,1995,194.519,59.487,13.288
2017-11-22T09:16:02,42.805,6.029,4330,1995,194.560,59.500,13.289
2017-11-22T09:19:02,42.805,6.029,4330,1995,194.564,59.501,13.289
2017-11-22T09:22:02,42.805,6.029,4330,1995,194.748,59.557,13.288
2017-11-22T09:25:02,42.805,6.029,4330,1995,194.823,59.580,13.288
2017-11-22T09:28:02,42.805,6.029,4330,1995,194.912,59.607,13.288
2017-11-22T09:31:02,42.805,6.029,4330,1995,194.853,59.589,13.288
2017-11-22T09:34:02,42.805,6.029,4330,1995,194.799,59.573,13.288
2017-11-22T09:37:02,42.805,6.029,4330,1995,194.747,59.557,13.288
2017-11-22T09:40:02,42.805,6.029,4330,1995,194.682,59.538,13.289
2017-11-22T09:43:02,42.805,6.029,4330,1995,194.598,59.512,13.289
2017-11-22T09:46:02,42.805,6.029,4330,1995,194.458,59.468,13.288
2017-11-22T09:49:02,42.805,6.029,4330,1995,194.260,59.406,13.287
2017-11-22T09:52:02,42.805,6.029,4330,1995,194.269,59.410,13.288
2017-11-22T09:55:02,42.805,6.029,4330,1995,194.369,59.443,13.290
2017-11-22T09:58:02,42.805,6.029,4330,1995,194.553,59.495,13.287
2017-11-22T10:01:02,42.805,6.029,4330,1995,194.693,59.538,13.287
2017-11-22T10:04:02,42.805,6.029,4330,1995,194.720,59.547,13.287
2017-11-22T10:07:02,42.805,6.029,4330,1995,194.907,59.604,13.287
2017-11-22T10:10:02,42.805,6.029,4330,1995,195.018,59.638,13.287
2017-11-22T10:13:02,42.805,6.029,4330,1995,195.016,59.638,13.287
2017-11-22T10:16:02,42.805,6.029,4330,1995,195.137,59.674,13.287
2017-11-22T10:19:02,42.805,6.029,4330,1995,195.282,59.718,13.287
2017-11-22T10:22:02,42.805,6.029,4330,1995,195.282,59.719,13.287
2017-11-22T10:25:02,42.805,6.029,4330,1995,195.284,59.719,13.287
2017-11-22T10:28:02,42.805,6.029,4330,1995,195.312,59.727,13.287
2017-11-22T10:31:02,42.805,6.029,4330,1995,195.448,59.769,13.287
2017-11-22T10:34:02,42.805,6.029,4330,1995,195.493,59.783,13.287
2017-11-22T10:37:02,42.805,6.029,4330,1995,195.482,59.779,13.287
2017-11-22T10:40:02,42.805,6.029,4330,1995,195.663,59.835,13.287
2017-11-22T10:43:02,42.805,6.029,4330,1995,195.830,59.886,13.287
2017-11-22T10:46:02,42.805,6.029,4330,1995,195.983,59.933,13.287
2017-11-22T10:49:02,42.805,6.029,4330,1995,196.104,59.970,13.287
2017-11-22T10:52:02,42.805,6.029,4330,1995,196.172,59.991,13.287
2017-11-22T10:55:02,42.805,6.029,4330,1995,196.201,59.999,13.287
2017-11-22T10:58:02,42.805,6.029,4330,1995,196.298,60.028,13.286
2017-11-22T11:01:02,42.805,6.029,4330,1995,196.298,60.029,13.286
2017-11-22T11:04:02,42.805,6.029,4330,1995,196.349,60.044,13.286
2017-11-22T11:07:02,42.805,6.029,4330,1995,196.329,60.038,13.286
2017-11-22T11:10:02,42.805,6.029,4330,1995,196.430,60.069,13.286
2017-11-22T11:13:02,42.805,6.029,4330,1995,196.502,60.090,13.286
2017-11-22T11:16:02,42.805,6.029,4330,1995,196.581,60.115,13.286
2017-11-22T11:19:02,42.805,6.029,4330,1995,196.603,60.121,13.286
2017-11-22T11:22:02,42.805,6.029,4330,1995,196.748,60.166,13.286
2017-11-22T11:25:02,42.805,6.029,4330,1995,196.714,60.155,13.286
2017-11-22T11:28:02,42.805,6.029,4330,1995,196.802,60.182,13.286
2017-11-22T11:31:02,42.805,6.029,4330,1995,196.830,60.190,13.286
2017-11-22T11:34:02,42.805,6.029,4330,1995,196.862,60.200,13.286
2017-11-22T11:37:02,42.805,6.029,4330,1995,196.963,60.231,13.286
2017-11-22T11:40:02,42.805,6.029,4330,1995,196.747,60.165,13.286
2017-11-22T11:43:02,42.805,6.029,4330,1995,196.891,60.209,13.286
2017-11-22T11:46:02,42.805,6.029,4330,1995,197.033,60.252,13.286
2017-11-22T11:49:02,42.805,6.029,4330,1995,197.092,60.270,13.286
2017-11-22T11:52:02,42.805,6.029,4330,1995,197.109,60.276,13.286
2017-11-22T11:55:02,42.805,6.029,4330,1995,197.194,60.302,13.286
2017-11-22T11:58:02,42.805,6.029,4330,1995,197.144,60.286,13.286
2017-11-22T12:01:02,42.805,6.029,4330,1995,197.174,60.295,13.286
2017-11-22T12:04:02,42.805,6.029,4330,1995,197.137,60.284,13.286
2017-11-22T12:07:02,42.805,6.029,4330,1995,197.060,60.261,13.286
2017-11-22T12:10:02,42.805,6.029,4330,1995,197.067,60.263,13.286
2017-11-22T12:13:02,42.805,6.029,4330,1995,196.982,60.237,13.286
2017-11-22T12:16:02,42.805,6.029,4330,1995,196.963,60.231,13.286
2017-11-22T12:19:02,42.805,6.029,4330,1995,196.849,60.196,13.286
2017-11-22T12:22:02,42.805,6.029,4330,1995,196.810,60.184,13.286
2017-11-22T12:25:02,42.805,6.029,4330,1995,196.804,60.182,13.286
2017-11-22T12:28:02,42.805,6.029,4330,1995,196.807,60.183,13.286
2017-11-22T12:31:02,42.805,6.029,4330,1995,196.782,60.176,13.286
2017-11-22T12:34:02,42.805,6.029,4330,1995,196.681,60.145,13.286
2017-11-22T12:37:02,42.805,6.029,4330,1995,196.555,60.106,13.286
2017-11-22T12:40:02,42.805,6.029,4330,1995,196.490,60.087,13.286
2017-11-22T12:43:02,42.805,6.029,4330,1995,196.470,60.080,13.286
2017-11-22T12:46:02,42.805,6.029,4330,1995,196.399,60.058,13.286
2017-11-22T12:49:02,42.805,6.029,4330,1995,196.422,60.066,13.286
2017-11-22T12:52:02,42.805,6.029,4330,1995,196.367,60.049,13.286
2017-11-22T12:55:02,42.805,6.029,4330,1995,196.339,60.040,13.286
2017-11-22T12:58:02,42.805,6.029,4330,1995,196.361,60.047,13.286
2017-11-22T13:01:02,42.805,6.029,4330,1995,196.360,60.046,13.286
2017-11-22T13:04:02,42.805,6.029,4330,1995,196.310,60.031,13.286
2017-11-22T13:07:02,42.805,6.029,4330,1995,196.264,60.017,13.286
2017-11-22T13:10:02,42.805,6.029,4330,1995,196.345,60.042,13.286
2017-11-22T13:13:02,42.805,6.029,4330,1995,196.309,60.031,13.286
2017-11-22T13:16:02,42.805,6.029,4330,1995,196.329,60.037,13.286
2017-11-22T13:19:02,42.805,6.029,4330,1995,196.424,60.066,13.286
2017-11-22T13:22:02,42.805,6.029,4330,1995,196.450,60.074,13.286
2017-11-22T13:25:02,42.805,6.029,4330,1995,196.446,60.073,13.286
2017-11-22T13:28:02,42.805,6.029,4330,1995,196.318,60.034,13.286
2017-11-22T13:31:02,42.805,6.029,4330,1995,196.164,59.987,13.286
2017-11-22T13:34:02,42.805,6.029,4330,1995,196.101,59.967,13.286
2017-11-22T13:37:02,42.805,6.029,4330,1995,196.273,60.020,13.286
2017-11-22T13:40:02,42.805,6.029,4330,1995,196.192,59.995,13.286
2017-11-22T13:43:02,42.805,6.029,4330,1995,196.194,59.996,13.286
2017-11-22T13:46:02,42.805,6.029,4330,1995,196.271,60.019,13.286
2017-11-22T13:49:02,42.805,6.029,4330,1995,196.460,60.077,13.286
2017-11-22T13:52:02,42.805,6.029,4330,1995,196.459,60.077,13.285
2017-11-22T13:55:02,42.805,6.029,4330,1995,196.462,60.077,13.285
2017-11-22T13:58:02,42.805,6.029,4330,1995,196.461,60.077,13.285
2017-11-22T14:01:02,42.805,6.029,4330,1995,196.400,60.058,13.286
2017-11-22T14:04:02,42.805,6.029,4330,1995,196.381,60.053,13.286
2017-11-22T14:07:02,42.805,6.029,4330,1995,196.430,60.068,13.286
2017-11-22T14:10:02,42.805,6.029,4330,1995,196.453,60.075,13.285
2017-11-22T14:13:02,42.805,6.029,4330,1995,196.479,60.083,13.285
2017-11-22T14:16:02,42.805,6.029,4330,1995,196.442,60.071,13.285
2017-11-22T14:19:02,42.805,6.029,4330,1995,196.367,60.049,13.286
2017-11-22T14:22:02,42.805,6.029,4330,1995,196.417,60.064,13.286
2017-11-22T14:25:02,42.805,6.029,4330,1995,196.529,60.098,13.286
2017-11-22T14:28:02,42.805,6.029,4330,1995,196.577,60.113,13.285
2017-11-22T14:31:02,42.805,6.029,4330,1995,196.606,60.121,13.285
2017-11-22T14:34:02,42.805,6.029,4330,1995,196.693,60.148,13.285
2017-11-22T14:37:02,42.805,6.029,4330,1995,196.688,60.147,13.285
2017-11-22T14:40:02,42.805,6.029,4330,1995,196.639,60.132,13.285
2017-11-22T14:43:02,42.805,6.029,4330,1995,196.656,60.137,13.285
2017-11-22T14:46:02,42.805,6.029,4330,1995,196.674,60.142,13.285
2017-11-22T14:49:02,42.805,6.029,4330,1995,196.700,60.150,13.285
2017-11-22T14:52:02,42.805,6.029,4330,1995,196.678,60.144,13.286
2017-11-22T14:55:02,42.805,6.029,4330,1995,196.750,60.165,13.285
2017-11-22T14:58:02,42.805,6.029,4330,1995,196.817,60.186,13.286
2017-11-22T15:01:02,42.805,6.029,4330,1995,196.763,60.169,13.285
2017-11-22T15:04:02,42.805,6.029,4330,1995,196.847,60.195,13.286
2017-11-22T15:07:02,42.805,6.029,4330,1995,196.935,60.222,13.285
2017-11-22T15:10:02,42.805,6.029,4330,1995,197.007,60.244,13.286
2017-11-22T15:13:02,42.805,6.029,4330,1995,197.005,60.243,13.285
2017-11-22T15:16:02,42.805,6.029,4330,1995,197.074,60.264,13.285
2017-11-22T15:19:02,42.805,6.029,4330,1995,197.158,60.290,13.285
2017-11-22T15:22:02,42.805,6.029,4330,1995,197.290,60.330,13.285
2017-11-22T15:25:02,42.805,6.029,4330,1995,197.374,60.356,13.285
2017-11-22T15:28:02,42.805,6.029,4330,1995,197.470,60.386,13.285
2017-11-22T15:31:02,42.805,6.029,4330,1995,197.536,60.406,13.285
2017-11-22T15:34:02,42.805,6.029,4330,1995,197.684,60.451,13.285
2017-11-22T15:37:02,42.805,6.029,4330,1995,197.682,60.450,13.285
2017-11-22T15:40:02,42.805,6.029,4330,1995,197.744,60.469,13.285
2017-11-22T15:43:02,42.805,6.029,4330,1995,197.732,60.466,13.285
2017-11-22T15:46:02,42.805,6.029,4330,1995,197.794,60.485,13.285
2017-11-22T15:49:02,42.805,6.029,4330,1995,197.896,60.516,13.285
2017-11-22T15:52:02,42.805,6.029,4330,1995,197.914,60.521,13.285
2017-11-22T15:55:02,42.805,6.029,4330,1995,197.898,60.516,13.285
2017-11-22T15:58:02,42.805,6.029,4330,1995,197.816,60.491,13.285
2017-11-22T16:01:02,42.805,6.029,4330,1995,197.953,60.533,13.285
2017-11-22T16:04:02,42.805,6.029,4330,1995,197.984,60.543,13.286
2017-11-22T16:07:02,42.805,6.029,4330,1995,197.974,60.540,13.285
2017-11-22T16:10:02,42.805,6.029,4330,1995,197.982,60.542,13.285
2017-11-22T16:13:02,42.805,6.029,4330,1995,198.004,60.549,13.286
2017-11-22T16:16:02,42.805,6.029,4330,1995,197.951,60.533,13.286
2017-11-22T16:19:02,42.805,6.029,4330,1995,197.927,60.525,13.285
2017-11-22T16:22:02,42.805,6.029,4330,1995,198.008,60.550,13.285
2017-11-22T16:25:02,42.805,6.029,4330,1995,198.034,60.558,13.285
2017-11-22T16:28:02,42.805,6.029,4330,1995,197.938,60.529,13.286
2017-11-22T16:31:02,42.805,6.029,4330,1995,197.917,60.522,13.285
2017-11-22T16:34:02,42.805,6.029,4330,1995,197.883,60.512,13.286
2017-11-22T16:37:02,42.805,6.029,4330,1995,197.927,60.526,13.286
2017-11-22T16:40:02,42.805,6.029,4330,1995,197.974,60.540,13.286
2017-11-22T16:43:02,42.805,6.029,4330,1995,197.993,60.546,13.286
2017-11-22T16:46:02,42.805,6.029,4330,1995,198.064,60.567,13.286
2017-11-22T16:49:02,42.805,6.029,4330,1995,198.114,60.583,13.286
2017-11-22T16:52:02,42.805,6.029,4330,1995,198.136,60.590,13.286
2017-11-22T16:55:02,42.805,6.029,4330,1995,198.132,60.588,13.286
2017-11-22T16:58:02,42.805,6.029,4330,1995,198.183,60.604,13.286
2017-11-22T17:01:02,42.805,6.029,4330,1995,198.174,60.601,13.286
2017-11-22T17:04:02,42.805,6.029,4330,1995,198.139,60.591,13.286
2017-11-22T17:07:02,42.805,6.029,4330,1995,198.114,60.583,13.286
2017-11-22T17:10:02,42.805,6.029,4330,1995,198.105,60.580,13.286
2017-11-22T17:13:02,42.805,6.029,4330,1995,198.075,60.571,13.286
2017-11-22T17:16:02,42.805,6.029,4330,1995,198.036,60.559,13.286
2017-11-22T17:19:02,42.805,6.029,4330,1995,197.990,60.546,13.286
2017-11-22T17:22:02,42.805,6.029,4330,1995,197.962,60.537,13.286
2017-11-22T17:25:02,42.805,6.029,4330,1995,197.925,60.525,13.286
2017-11-22T17:28:02,42.805,6.029,4330,1995,197.847,60.502,13.286
2017-11-22T17:31:02,42.805,6.029,4330,1995,197.889,60.514,13.286
2017-11-22T17:34:02,42.805,6.029,4330,1995,197.850,60.502,13.286
2017-11-22T17:37:02,42.805,6.029,4330,1995,197.799,60.488,13.286
2017-11-22T17:40:02,42.805,6.029,4330,1995,197.775,60.480,13.286
2017-11-22T17:43:02,42.805,6.029,4330,1995,197.709,60.460,13.286
2017-11-22T17:46:02,42.805,6.029,4330,1995,197.716,60.461,13.286
2017-11-22T17:49:02,42.805,6.029,4330,1995,197.774,60.480,13.286
2017-11-22T17:52:02,42.805,6.029,4330,1995,197.708,60.459,13.286
2017-11-22T17:55:02,42.805,6.029,4330,1995,197.721,60.463,13.286
2017-11-22T17:58:02,42.805,6.029,4330,1995,197.698,60.456,13.286
2017-11-22T18:01:02,42.805,6.029,4330,1995,197.653,60.443,13.286
2017-11-22T18:04:02,42.805,6.029,4330,1995,197.635,60.437,13.286
2017-11-22T18:07:02,42.805,6.029,4330,1995,197.643,60.440,13.286